Flag for U.S.A. Weather past 2 weeks in Pensacola, Florida, U.S.A.

Now
82 °F

Partly sunny.


Feels Like: 87 °F
Forecast: 71 / 84 °F
Wind: 9 mph from Southeast

Location: Pensacola Regional Airport

Current Time: Oct 2, 2014 at 11:57:22 AM

Latest Report: Oct 2, 2014 at 10:53 AM


Visibility: 10 mi

Pressure: 30.04 "Hg

Humidity: 74%

Dew point: 73 °F

Location of PensacolaLocation

Historic Weather in Pensacola — Graph

°F

Pensacola temperature yesterday

Maximum temperature yesterday: 84 °F (at 1:53 PM)
Minimum temperature yesterday: 68 °F (at 3:53 AM)
Average temperature yesterday: 75 °F

Past Weeks' High & Low Weather Summary

 TemperatureHumidityPressure
High89 °F (Sep 22, 1:53 PM)100% (Sep 18, 5:53 AM)30.20 "Hg (Sep 18, 5:53 AM)
Low60 °F (Sep 23, 6:53 AM)45% (Sep 22, 1:53 PM)29.83 "Hg (Sep 29, 4:53 PM)
Average74 °F80%30.00 "Hg
* Reported Sep 17 9:53 AM — Oct 2 9:53 AM, Pensacola, Weather by CustomWeather, © 2014

Note: Actual official high and low records may vary slightly from our data, if they occured in-between our weather recording intervals... More about our weather records

Advertising

Pensacola weather history for previous 24 hours

 ConditionsComfort  
Time TempWeatherWind HumidityBarometerVisibility
9:53 AM
Oct 2
83 °FScattered clouds.9 mph72%30.04 "Hg10 mi
8:53 AM79 °FPassing clouds.No wind82%30.04 "Hg10 mi
7:53 AM74 °FPassing clouds.No wind94%30.03 "Hg10 mi
6:53 AM72 °FLight rain. Scattered clouds.No wind97%30.01 "Hg10 mi
5:53 AM72 °FPassing clouds.6 mph93%30.00 "Hg10 mi
4:53 AM72 °FClear.3 mph97%29.98 "Hg10 mi
3:53 AM72 °FPassing clouds.No wind97%29.97 "Hg10 mi
2:53 AM73 °FPassing clouds.No wind94%29.98 "Hg10 mi
1:53 AM73 °FClear.3 mph97%29.98 "Hg10 mi
12:53 AM72 °FClear.No wind97%29.97 "Hg10 mi
11:53 PM
Oct 1
73 °FClear.3 mph90%29.98 "Hg10 mi
10:53 PM74 °FClear.3 mph91%29.99 "Hg10 mi
9:53 PM74 °FClear.No wind91%29.99 "Hg10 mi
8:53 PM74 °FClear.No wind91%29.98 "Hg10 mi
7:53 PM75 °FClear.No wind85%29.95 "Hg10 mi
6:53 PM77 °FClear.6 mph79%29.94 "Hg10 mi
5:53 PM79 °FSunny.7 mph74%29.94 "Hg10 mi
4:53 PM80 °FSunny.7 mph71%29.93 "Hg10 mi
3:53 PM81 °FScattered clouds.7 mph69%29.92 "Hg10 mi
2:53 PM82 °FSunny.8 mph67%29.92 "Hg10 mi
1:53 PM84 °FSunny.8 mph61%29.94 "Hg10 mi
12:53 PM82 °FScattered clouds.7 mph63%29.96 "Hg10 mi
12:00 PM82 °FPassing clouds.5 mph65%29.98 "Hg10 mi
Weather by CustomWeather, © 2014

See weather overviewHow to use our weather pages